Regional Weather Roundup
Issued by NWS Kansas City/Pleasant Hill, MO

Home | Current Version | Previous Version | Text Only | Print | Product List | Glossary On
Versions: 1 2 3 4 5 6 7 8 9 10 11 12 13 14 15 16 17 18 19 20 21 22 23 24 25 26 27 28
000
ASUS43 KEAX 300910
RWREAX

WEATHER ROUNDUP FOR EASTERN KANSAS AND NORTHWEST MISSOURI
NATIONAL WEATHER SERVICE KANSAS CITY/PLEASANT HILL MO
400 AM CDT THU MAR 30 2017

KSZ040-057-103>105-MOZ028-029-037-043-301000-
...KANSAS CITY METROPOLITAN AREA...

CITY           SKY/WX    TMP DP  RH WIND       PRES   REMARKS
K.C. INTL      DRIZZLE   51  51 100 E8        29.57S
K.C. DOWNTOWN  LGT RAIN  54  53  97 SE5       29.56F
LEES SUMMIT    CLOUDY    52  48  86 S14       29.57F
OLATHE - IXD   MOCLDY    48  45  89 SE7       29.56S
OLATHE - OJC   MOCLDY    47  46  97 MISG      29.56F
LAWRENCE       CLOUDY    50  48  93 SE8       29.56F

$$

MOZ001>008-011>017-020>025-030>033-038>040-044>046-053-054-301000-
...NORTHERN AND CENTRAL MISSOURI...

CITY           SKY/WX    TMP DP  RH WIND       PRES   REMARKS
ST. JOSEPH     CLOUDY    49  49 100 E6        29.58F
MOSBY          CLOUDY    52  50  93 E7        29.57F
WARRENSBURG    CLOUDY    54  52  94 S6        29.58F FOG
WHITEMAN AFB   FOG       54  54 100 S7        29.57F VSB 3/16
CLINTON        CLEAR     50  48  93 SW8       29.60F
SEDALIA        CLEAR     55  54  96 S12       29.60S
WARSAW         NOT AVBL
CHILLICOTHE      N/A     48  46  93 NE9       29.61F
KIRKSVILLE     CLOUDY    48 N/A N/A NE14      29.63F

$$

MOZ041-047>049-056>058-063>065-088>090-097-301000-
...EASTERN AND SOUTHERN MISSOURI...

CITY           SKY/WX    TMP DP  RH WIND       PRES   REMARKS
ST. LOUIS INTL CLOUDY    60  56  86 SE9       29.60F
SPIRIT OF STL  CLOUDY    58  58 100 CALM      29.60F
COLUMBIA       LGT RAIN  60  60 100 S7        29.59S FOG
JEFFERSON CITY LGT RAIN  64  60  87 CALM      29.58F
ROLLA          MOCLDY    59  58  96 SW7       29.60F
OSAGE BEACH    CLOUDY    59  57  93 CALM      29.60F
SPRINGFIELD    MOCLDY    53  48  83 SW8       29.62F
BRANSON        PTCLDY    55  50  82 SW6       29.64S
JOPLIN         CLOUDY    48  43  82 SW16G22   29.63F
WEST PLAINS    CLOUDY    63  59  87 S7        29.64F

$$

IAZ060-094-KSZ022-034>040-054-083-096-NEZ052-066-093-301000-
...KANSAS...SOUTHEAST NEBRASKA AND IOWA...

CITY           SKY/WX    TMP DP  RH WIND       PRES   REMARKS
TOPEKA         CLOUDY    50  48  93 SE5       29.54F
MANHATTAN      CLOUDY    46  44  93 N12G21    29.56S
EMPORIA        CLOUDY    45  45 100 W10       29.53S FOG
CHANUTE        LGT RAIN  47  45  93 S15       29.57F FOG
WICHITA        LGT RAIN  44  44 100 NW20G26   29.63F FOG
OMAHA          CLOUDY    43  38  82 NE13      29.71F
LINCOLN        LGT RAIN  41  40  96 N17       29.71F FOG     WCI  32
FALLS CITY     CLOUDY    48  46  93 NE9       29.59F
LAMONI         CLOUDY    44  43  96 E15       29.61F
DES MOINES     CLOUDY    44  40  85 E16G23    29.70F

$$





USA.gov is the U.S. government's official web portal to all federal, state and local government web resources and services.